weather.gov     
National Weather Service

Regional Weather Roundup
NWS Homepage
This page is being discontinued on March 12, 2014.
The same data is available at this site. Please update your bookmarks.
Thank you, and we apologize for the inconvenience.
Please send an email to SR-SRH.Webmaster@noaa.gov with any concerns.


Current Version
Previous Version:    01  02  03  04  05  06  07  08  09  10  11  12  13  14  15  16  17  18  19  20  21  22  23  24  25  26  
[Printable]
097
ASUS45 KBOI 230210
RWRID
WEATHER ROUNDUP FOR IDAHO
NATIONAL WEATHER SERVICE BOISE ID
800 PM MDT WED OCT 22 2014

NOTE: "FAIR" INDICATES FEW OR NO CLOUDS BELOW 12000 FEET
WITH NO SIGNIFICANT WEATHER AND/OR OBSTRUCTIONS TO VISIBILITY

IDZ012-014-230300-
SOUTHWEST IDAHO


CITY           SKY/WX    TMP DP  RH WIND       PRES   REMARKS
BOISE          CLOUDY    62  30  29 SE10      29.99F
CALDWELL       CLOUDY    57  34  41 SE9       30.01F
MOUNTAIN HOME  CLOUDY    56  35  44 E15       30.03F
$$

IDZ016-017-230300-
SOUTHCENTRAL IDAHO


CITY           SKY/WX    TMP DP  RH WIND       PRES   REMARKS
BURLEY         MOCLDY    46  31  55 CALM      30.10S
JEROME         CLOUDY    53  27  36 NE9       30.10S
TWIN FALLS     CLOUDY    51  33  50 E9        30.09F
$$

IDZ019>023-230300-
SOUTHEAST IDAHO


CITY           SKY/WX    TMP DP  RH WIND       PRES   REMARKS
IDAHO FALLS    PTCLDY    46  29  51 SE5       30.16S
POCATELLO      MOCLDY    51  25  36 SE5       30.15F
REXBURG        CLEAR     44  27  51 SE3       30.16S
$$

IDZ006-010-011-018-031-032-230300-
CENTRAL IDAHO MOUNTAINS


CITY           SKY/WX    TMP DP  RH WIND       PRES   REMARKS
MCCALL         CLOUDY    47  36  65 S12       30.02F
HAILEY         MOCLDY    48  28  46 N5        30.16S
STANLEY          N/A     43  27  53 S9        30.12S
SALMON         PTCLDY   N/A N/A N/A MISG        N/A
CHALLIS        CLOUDY    51  30  44 S3        30.07S
$$

IDZ002-004-006-007-026-230300-
NORTHERN IDAHO


CITY           SKY/WX    TMP DP  RH WIND       PRES   REMARKS
LEWISTON       CLOUDY    66  34  30 S6        29.78F
LOWELL           N/A     51  49  92 CALM      29.91R
COEUR D`ALENE  CLOUDY    52  45  76 N7        29.80F
MULLAN PASS    CLOUDY    42  33  70 VRB6G17   29.89F
$$




U.S. Dept. of Commerce
NOAA National Weather Service
1325 East West Highway
Silver Spring, MD 20910
E-mail: w-nws.webmaster@noaa.gov
Page last modified: May 16, 2007
NATIONAL WEATHER SERVICE: for Safety, for Work, for Fun - FOR LIFE